STARLINK-1728, 46582

Orbit data source: Space-Track

STARLINK-1728, 46582 is a payload satellite owned by SpaceX/Seattle (US) in LEO that was launched on Tue, 06 Oct 2020 UTC via an FALCON 9 launch vehicle from the Air Force Eastern Test Range (AFETR). Payload-class satellites include a variety of spacecraft equipped with specific instruments for various scientific and technological missions. These include communications satellites like Starlink; space stations such as the ISS; scientific satellites like the Hubble; Earth observation satellites from companies like Planet Labs, Umbra, and HawkEye 360; GPS; miniature CubeSats for education and research; and military/defense satellites.

Loading next visibility...
Identifier
46582, 2020-070BC
Orbit
LEO
Country
Flag of USUS
Related business
Manufacturer
SpaceX/Seattle
Mission
Operational Commercial Communications
Bus & Motor
STARLINK, Unknown motor
Mass
260 kg wet, ~248 kg dry
Launch date (UTC)
2020-10-06 (5 years ago)
Launch vehicle
FALCON 9
Launch site
Air Force Eastern Test Range (AFETR)
Object type
Payload
Rocket body
Debris
Shape & HBR
Box + 1 Pan, 10.1 m
Radar Cross Section
13.562 m², Large (>1 m²)

Expand to show TLE details & history
Last TLE update: 12 hours ago

TLE from 12 hours ago
0 STARLINK-1728
1 46582U 20070BC  25294.00002315  .02015969  00000-0  10786+0 0  9990
2 46582  53.0531  63.6612 0001446  64.2080 262.7498 15.11368563  5454
Epoch: 2025-10-21T00:00Z
TLE epoch observation values (Epoch: 2025-10-21T00:00:02.000Z)
Latitude
-26.0436°
Longitude
12.51916°
Altitude
539.789 km
Speed
7.592 km/s
True Right ascension
02h 48m 53s
True Declination
-25° 54' 14"
Sunlit
Object was in full shadow at epoch
Visualization orbit readout
Latitude
Unknown
Longitude
Unknown
Altitude
Unknown
Speed
Unknown
Apparent Right ascension
Unknown
Apparent Declination
Unknown
Sunlit
N/A
Visualization observer readout
Local Sidereal Time
06:30:27
Azimuth
Unknown
Elevation
Unknown
Doppler factor
Unknown
Orbital elements
Apogee altitude
533.296 km
Perigee altitude
531.298 km
Semi-major axis
6,910.434 km
Eccentricity
0.00014
Inclination
53.0531°
RAAN
63.6612°
Arg. of periapsis
64.208°
True anomaly
262.73336°
Mean anomaly
262.7498°
Eccentric anomaly
262.74158°
Mean motion
3.7782 °/min
Orbital period
95.28 mins
BSTAR
0.10786
Loading maneuver chart data...
Computing Atmospheric mass density...
Loading historical data...
Loading historical data...
Loading historical data...
Loading historical data...
Loading historical data...
Loading historical data...
Loading historical data...

Documentation

Showing up to 5 results
|